Wind_Speed
16 16 16 16 16 16 16 17 17 17 16 16 16 16 16 16 17 17 17 17 16 16 15 15 15 15 15 15 14 14 13 12 13 15 15 7 7 9 8 7 4 5 4 5 7 9 11 15 14 9 9 13 13 13 13 13 15 10 5 3 5 4 4 5 4 4 3 2 5 5 6 5 1 11 11 5 10 12 12 12 10 13 10 7 10 9 11 16
16 16 16 16 16 16 16 17 17 17 17 17 16 16 16 16 17 17 17 17 16 16 16 16 15 15 15 16 15 15 15 16 17 13 8 2 5 10 9 7 5 5 5 6 7 9 12 13 12 7 11 15 14 15 12 11 11 8 4 2 5 5 6 9 7 7 4 1 4 3 5 5 5 4 4 2 7 12 10 6 7 10 11 11 12 11 13 17
16 16 16 16 16 16 16 16 16 17 17 17 17 17 16 16 17 17 17 16 16 16 16 16 15 15 15 15 16 15 16 18 15 5 1 3 2 7 9 8 7 4 4 5 6 9 11 10 8 9 13 14 16 19 14 11 10 9 6 2 6 7 6 13 15 12 5 1 3 3 5 7 11 8 1 4 8 10 8 8 7 11 15 16 14 13 16 18
17 17 17 17 17 17 17 17 17 17 17 17 17 17 17 17 17 17 17 16 16 16 16 16 15 15 15 15 16 15 16 15 7 3 2 5 4 4 6 8 7 4 3 5 8 10 11 11 11 13 13 13 19 18 12 13 10 5 6 5 7 6 5 16 16 9 8 5 3 6 6 8 13 13 9 4 7 3 10 19 17 18 21 19 16 17 19 20
18 18 18 18 18 18 18 18 17 17 17 17 17 17 17 17 17 17 17 17 16 16 16 16 15 15 15 15 14 15 14 7 2 2 1 2 5 4 5 8 8 6 5 8 11 12 13 14 15 14 11 10 13 10 9 19 15 5 7 11 12 6 5 17 13 6 9 6 5 8 5 7 12 13 12 6 6 6 12 24 25 24 23 19 19 20 21 23
18 18 19 19 19 19 18 18 18 18 17 17 17 17 17 16 16 17 17 17 16 15 15 15 15 15 15 14 14 14 9 2 6 5 3 2 2 3 5 8 9 8 8 12 13 13 14 14 12 11 8 7 7 7 11 19 16 9 8 12 18 15 10 17 15 9 13 10 6 7 8 11 9 8 11 7 8 10 9 20 25 23 21 19 20 22 24 24
19 19 19 19 19 19 19 19 19 18 18 18 17 17 17 17 16 16 17 16 16 15 15 15 15 15 14 14 14 12 10 10 9 5 6 7 4 1 3 7 9 10 12 14 15 13 13 12 11 11 8 7 6 7 12 15 9 10 5 7 14 18 15 18 18 16 16 11 10 12 12 12 8 7 10 10 16 14 7 16 24 22 20 20 21 22 23 24
19 20 20 20 20 20 20 19 19 18 18 18 17 17 17 17 16 16 16 16 16 15 14 14 13 14 14 13 12 11 15 14 6 2 7 8 7 4 3 6 10 13 15 15 15 12 11 11 13 13 5 6 6 5 11 12 1 3 4 8 11 15 19 21 21 19 17 12 14 14 11 14 18 14 8 14 22 14 10 19 25 24 23 23 23 23 24 24
20 20 20 20 20 21 21 20 19 19 18 18 18 17 17 17 17 17 16 16 16 15 14 13 13 13 12 12 10 10 13 9 2 2 5 7 9 5 4 7 10 14 17 17 15 12 11 10 11 9 4 10 10 7 9 6 2 5 8 11 11 15 19 21 20 18 17 15 14 11 11 19 27 17 8 19 23 11 15 25 29 27 26 26 26 24 25 26
21 21 21 21 21 21 22 21 20 19 18 18 17 17 17 17 17 17 17 16 16 15 14 13 12 11 12 12 6 5 8 4 4 4 5 7 8 6 6 8 11 14 17 19 18 16 14 10 9 11 11 13 11 11 9 3 7 14 14 16 16 19 20 18 18 20 20 18 16 9 9 19 24 11 4 17 16 11 23 31 32 29 29 29 28 26 25 25
22 22 21 21 21 21 22 22 22 21 20 18 17 17 16 17 17 18 17 16 16 15 14 13 12 10 12 12 8 8 9 4 5 5 6 8 6 6 7 8 12 14 16 18 20 17 14 12 11 13 11 10 12 15 10 7 15 18 16 16 18 20 22 21 17 21 16 14 22 13 8 17 18 7 10 23 15 16 30 34 33 32 30 30 29 27 26 25
22 22 22 22 22 22 22 22 22 22 21 20 18 16 16 16 17 18 17 16 16 14 13 13 11 11 10 13 16 11 7 4 4 6 8 7 6 4 4 7 11 13 14 17 19 16 14 13 13 13 13 12 10 9 10 16 19 19 15 10 13 13 16 21 16 20 13 11 26 13 4 13 11 9 21 28 15 22 33 35 36 35 32 31 30 29 27 25
23 23 22 22 22 22 22 22 23 22 22 21 19 17 16 16 17 18 16 15 14 12 13 12 11 11 9 14 16 7 6 8 6 8 11 9 6 3 5 8 11 13 14 16 18 16 14 12 13 17 19 13 5 6 13 18 16 15 11 5 9 9 9 17 14 17 14 18 27 9 1 11 9 15 28 24 14 29 32 35 37 35 34 33 32 31 28 26
24 23 23 22 22 22 21 22 22 22 22 21 20 18 17 16 16 15 13 13 13 13 13 11 10 9 10 16 15 9 10 12 11 15 15 12 10 6 6 8 10 13 15 16 17 17 15 12 15 19 18 11 8 11 12 11 9 7 8 4 4 4 7 17 13 9 10 19 25 13 3 11 9 16 26 19 16 35 32 33 35 33 34 34 34 33 29 28
24 23 23 22 22 22 21 21 22 22 21 21 20 18 17 16 13 11 11 12 13 12 10 9 8 7 10 18 16 9 8 11 17 19 17 17 15 10 6 6 8 10 12 15 15 13 12 14 18 17 14 12 9 9 6 5 5 2 3 5 3 2 7 17 16 7 7 10 16 16 4 9 8 15 23 17 15 34 32 31 32 32 34 35 35 34 31 28
24 24 23 22 22 21 21 21 20 21 20 19 20 18 15 14 12 10 11 10 9 7 5 5 4 3 7 12 9 4 8 13 16 15 15 18 18 13 5 4 6 6 9 12 11 11 13 16 19 15 12 9 4 3 4 4 5 2 2 4 5 5 6 10 12 7 4 3 9 12 4 4 6 14 24 18 15 28 29 29 32 34 36 36 36 36 34 29
25 24 23 22 21 21 21 20 19 19 18 18 19 18 14 11 10 10 7 4 4 4 3 5 3 4 8 9 6 3 4 9 12 14 14 15 18 14 6 6 9 8 9 11 11 14 16 16 13 10 7 4 1 2 4 4 5 3 2 4 6 6 5 6 8 9 7 6 3 9 6 6 7 11 21 19 16 25 23 24 34 37 36 37 37 36 35 31
26 25 24 23 22 21 20 19 19 17 16 16 19 19 13 7 6 5 2 3 7 6 3 6 5 3 8 10 7 4 5 10 12 13 14 13 16 15 10 10 12 12 12 11 13 15 14 10 4 4 4 2 1 3 1 6 5 4 4 3 6 6 6 8 8 8 6 4 3 6 7 12 13 10 17 20 16 23 23 22 31 36 36 35 35 36 36 33
27 26 25 24 22 20 19 19 16 15 15 15 19 16 6 4 4 2 4 12 12 7 4 6 8 3 5 9 8 8 11 15 14 12 17 16 17 18 15 12 12 15 12 6 7 10 9 4 2 3 4 4 4 5 8 11 8 8 9 6 7 8 8 10 10 9 5 4 5 5 7 10 12 11 13 19 16 19 23 22 24 30 32 33 34 36 37 35
27 27 26 24 23 20 18 17 14 13 14 16 19 13 8 12 7 3 17 25 16 10 13 14 16 18 19 19 16 15 15 13 10 10 16 18 19 21 19 14 11 12 9 4 3 7 8 4 3 6 8 8 9 8 11 12 11 11 10 8 10 9 10 12 11 11 5 2 6 7 6 7 9 10 9 15 15 11 16 16 17 26 30 32 35 37 38 37
28 28 26 25 23 20 17 15 11 11 13 13 18 18 15 17 8 7 25 29 21 18 22 22 21 27 29 26 24 21 17 10 8 9 11 18 20 17 16 13 7 5 5 6 5 3 5 6 7 10 12 10 11 11 10 11 11 11 9 9 10 8 11 12 10 12 6 3 6 8 6 9 9 8 8 10 9 9 13 11 15 27 32 35 38 38 39 38
29 28 27 26 23 20 17 12 9 10 9 7 14 19 15 16 9 10 17 20 27 28 25 24 22 27 30 27 26 23 16 12 13 13 10 16 21 14 10 9 6 4 3 4 3 3 3 6 9 12 13 10 11 11 10 12 12 10 8 7 8 7 9 10 9 11 5 3 6 10 8 9 9 8 9 9 7 11 20 18 15 26 33 34 35 36 39 39
29 28 27 26 23 22 16 9 8 7 5 5 12 16 12 11 8 12 14 12 23 26 19 16 16 20 20 17 17 18 16 13 16 18 12 15 21 18 12 8 6 5 3 4 5 5 4 8 11 12 11 9 12 13 11 11 9 8 8 6 8 10 7 6 7 9 5 0 6 8 6 6 7 7 7 10 10 12 19 20 14 21 31 34 37 40 40 40
28 28 28 27 24 22 14 6 7 5 3 5 8 10 8 8 7 13 15 8 11 15 11 7 6 7 6 3 4 12 17 14 15 17 15 18 22 18 12 9 6 4 5 6 8 7 8 13 13 9 9 10 12 15 12 8 7 9 10 8 10 11 9 7 7 7 6 4 4 3 5 4 5 5 6 10 11 10 15 19 11 8 26 35 39 42 42 42
29 28 27 27 25 23 15 6 7 4 3 4 5 9 10 9 10 11 11 5 5 8 7 4 2 1 3 2 2 7 11 12 14 15 15 20 22 14 8 9 7 4 7 8 7 6 9 17 17 10 10 11 10 12 12 8 7 9 10 13 15 12 10 9 7 4 5 6 4 2 4 5 5 5 6 7 8 10 15 17 15 7 12 26 30 34 37 41
28 27 27 26 25 24 16 9 10 7 5 6 7 11 11 9 9 7 5 4 2 5 4 3 1 1 1 4 5 4 3 4 10 14 15 19 21 16 6 5 5 4 7 6 4 3 6 14 14 9 10 11 8 9 9 8 6 6 8 11 13 9 6 8 7 3 1 5 5 0 1 4 6 6 5 5 8 9 11 11 13 16 5 14 25 28 31 36
27 27 25 24 25 25 18 13 14 10 6 9 11 12 10 8 7 6 3 4 3 5 3 1 1 1 2 6 8 5 1 4 9 9 16 18 19 19 10 4 4 5 5 2 2 3 4 8 7 6 7 7 7 7 6 6 4 5 6 5 5 5 6 6 5 4 3 4 5 4 1 2 4 4 5 4 8 9 11 10 12 17 16 5 18 29 34 38
27 27 25 23 23 22 20 17 15 12 12 14 14 12 8 6 5 3 3 4 3 4 2 2 0 1 3 7 10 8 4 6 6 4 11 16 17 15 9 6 5 5 5 3 4 6 4 6 8 7 7 5 6 7 7 4 2 6 6 4 2 3 5 4 2 4 3 1 5 6 2 1 4 5 5 5 7 7 8 9 9 13 17 11 10 26 36 39
26 26 25 23 21 19 18 17 15 16 17 17 16 11 6 6 6 3 5 2 4 4 3 3 2 4 4 2 9 9 8 7 3 2 7 15 19 15 10 11 9 5 7 6 5 6 6 10 12 7 6 6 7 8 7 4 5 7 5 3 1 1 3 2 1 3 2 2 4 6 2 1 4 5 5 4 4 3 3 5 7 10 16 16 10 17 25 30
24 25 25 23 20 17 15 14 15 17 19 19 16 10 5 5 4 4 4 1 3 5 7 5 6 12 13 6 5 7 5 5 4 6 6 9 15 14 12 15 10 3 4 3 4 8 9 13 12 6 7 8 8 10 9 8 10 9 4 3 4 5 3 2 1 1 2 3 6 6 1 4 1 5 3 1 2 3 2 2 3 8 16 20 16 15 19 22
23 23 23 21 18 16 16 15 14 15 16 17 13 8 4 3 3 6 1 3 2 6 8 6 7 12 12 6 4 5 4 4 2 4 4 2 7 8 5 6 4 1 3 4 5 7 7 8 7 7 12 9 6 8 9 7 6 4 0 2 3 5 4 4 5 3 1 5 5 4 1 4 1 4 4 4 3 4 3 3 6 6 12 19 20 19 17 18
23 21 20 19 15 14 16 16 13 12 13 12 9 6 3 3 3 2 2 4 3 3 4 3 5 7 8 7 4 5 5 4 2 3 4 2 2 4 3 4 4 0 3 4 4 5 5 6 6 7 12 8 4 4 7 6 3 2 1 3 3 4 4 3 4 2 3 6 5 3 0 1 4 5 5 7 5 5 4 4 7 9 13 18 21 22 20 16
22 20 18 16 12 12 15 15 14 12 9 8 7 5 4 5 1 3 2 3 2 3 4 4 6 6 5 6 6 7 6 3 3 3 4 2 2 5 4 4 3 1 3 3 1 3 4 7 7 4 6 5 1 1 3 5 4 3 1 1 1 0 1 3 4 3 3 5 6 3 2 3 3 4 6 7 5 9 13 14 14 15 20 22 20 20 22 19
22 19 16 12 10 13 16 16 16 14 11 9 6 4 5 2 3 3 2 3 2 3 4 4 8 7 4 3 3 5 5 4 6 7 5 3 2 5 5 5 4 2 2 1 1 2 2 5 5 1 3 5 3 1 4 3 2 4 2 3 2 2 2 4 3 3 5 5 5 3 2 3 2 4 4 5 4 7 14 19 21 21 23 25 22 19 19 19
21 17 12 8 9 13 16 18 19 17 14 10 5 4 3 2 3 1 2 4 2 3 5 4 5 6 4 4 3 5 7 4 7 8 5 5 4 5 3 3 3 1 2 0 3 2 2 5 6 3 2 2 5 4 1 2 2 4 1 3 1 4 4 3 3 5 4 3 4 2 2 4 3 2 2 7 5 6 9 15 20 19 21 26 25 20 19 19
20 14 7 6 9 12 15 18 20 18 14 9 5 3 1 4 3 1 2 5 3 3 6 5 4 3 4 5 3 7 10 5 6 7 4 5 5 4 3 3 3 2 3 2 3 1 1 5 6 8 6 2 7 6 3 3 2 3 3 3 5 4 4 0 4 3 1 2 4 2 2 2 1 2 3 5 4 4 5 9 15 17 19 23 23 22 21 21
19 12 5 5 9 11 13 15 18 17 12 5 4 1 3 3 1 2 4 4 2 2 4 3 3 2 3 4 3 6 9 6 5 6 4 4 4 4 5 5 5 4 1 2 1 2 1 4 6 6 7 7 15 13 5 1 1 1 2 5 4 1 3 3 2 5 3 3 5 2 4 4 1 1 1 2 4 5 5 5 10 14 17 19 19 21 21 20
21 12 3 3 8 10 12 15 17 15 7 4 2 3 2 2 3 6 7 3 1 2 4 2 2 2 2 3 4 5 5 3 4 5 3 3 3 3 5 4 7 12 9 4 1 2 2 4 7 3 3 7 14 13 7 6 4 2 2 4 1 1 2 1 1 2 3 4 5 4 4 5 4 5 6 7 8 8 7 6 7 9 12 16 18 20 20 19
21 12 1 1 6 10 14 17 16 10 3 3 0 3 1 3 6 11 14 8 2 2 2 2 2 1 2 2 3 4 4 1 2 3 1 1 3 5 6 4 6 13 15 9 3 2 3 2 6 4 3 5 6 4 3 6 8 5 3 3 2 2 3 2 2 3 2 4 4 4 4 4 5 6 10 13 11 10 9 7 6 7 12 18 20 19 18 17
18 11 2 3 9 12 15 14 9 3 2 1 2 2 3 4 7 15 17 10 2 2 0 3 2 1 3 3 3 3 2 1 1 1 2 2 4 5 6 7 5 8 11 9 5 2 3 1 5 6 5 5 4 2 2 3 5 5 5 5 4 2 1 2 2 2 3 3 3 3 4 5 5 5 10 14 12 11 10 9 8 9 14 19 20 19 17 16
15 8 4 7 10 12 13 9 3 2 1 1 2 2 4 5 8 15 18 12 3 2 1 3 2 2 3 2 3 3 1 1 1 1 3 2 3 2 6 12 9 6 6 5 4 1 0 0 4 5 4 3 4 5 4 5 5 3 3 3 3 3 1 2 4 3 1 3 4 3 5 6 6 3 2 4 4 2 4 2 4 9 15 18 19 18 16 16
12 5 4 9 10 11 12 5 1 2 1 2 4 6 8 8 7 11 16 16 9 2 1 1 0 2 3 2 2 2 1 2 3 1 3 3 2 3 8 17 16 11 6 2 2 1 2 1 2 5 5 4 6 7 6 7 9 6 3 1 1 0 2 1 4 4 3 3 2 1 3 5 5 5 7 8 10 13 18 18 11 4 7 13 15 16 14 13
12 7 4 7 8 11 10 3 4 4 1 6 10 10 12 8 4 8 11 12 9 4 4 1 1 1 2 1 2 2 3 2 4 3 3 3 3 4 10 20 21 13 5 2 3 3 1 1 2 5 5 3 5 6 5 5 5 4 3 1 2 1 2 3 4 3 3 5 3 1 4 5 5 4 8 10 14 17 17 18 18 13 3 7 10 11 11 10
12 10 5 4 5 8 7 2 3 4 4 9 10 9 12 8 5 8 7 7 7 5 4 3 1 2 2 1 2 2 2 1 3 4 3 2 4 8 17 28 23 11 5 4 2 1 2 2 2 5 6 6 6 5 5 5 3 2 4 1 2 1 2 0 1 2 1 4 2 3 5 5 5 2 6 9 11 10 7 9 11 15 12 3 5 8 10 10
11 8 7 6 5 5 8 7 5 3 4 8 7 7 9 7 8 10 7 7 8 6 5 5 6 6 4 4 4 2 1 0 3 5 4 4 6 11 22 30 21 12 14 13 5 4 2 3 3 2 5 8 8 5 4 3 2 3 4 4 2 2 2 1 2 2 2 4 3 2 4 6 6 3 5 8 8 5 2 4 7 15 17 7 3 5 6 9
8 3 7 10 7 6 9 12 13 7 3 6 6 5 6 5 9 13 10 6 8 11 8 6 8 10 6 7 6 4 5 4 3 3 3 4 4 7 19 25 19 17 22 21 12 2 1 1 3 6 7 9 9 8 5 2 3 6 7 10 10 4 2 3 1 2 4 3 5 4 4 5 7 4 4 5 7 5 5 9 11 9 11 7 4 4 5 10
5 2 3 7 7 6 7 13 17 11 5 6 3 5 6 6 7 9 8 6 10 13 7 4 11 9 4 6 4 3 5 6 4 4 4 4 4 7 16 18 15 18 20 21 20 9 0 3 4 6 8 10 9 9 7 4 6 9 10 12 13 8 3 4 4 6 5 2 6 6 4 5 7 2 1 1 1 3 5 9 14 13 10 9 9 12 14 15
3 1 2 2 3 2 3 9 14 11 8 7 3 4 5 6 5 5 7 7 10 12 6 4 11 9 4 5 2 2 5 5 4 5 5 5 6 8 12 11 10 16 18 16 17 9 1 4 5 4 6 9 7 9 9 6 6 9 10 11 11 10 7 6 7 8 6 5 7 7 5 7 10 7 4 2 3 9 11 10 11 12 12 10 14 19 20 20
2 0 0 1 2 3 4 9 13 10 7 6 3 2 3 6 6 6 7 6 5 9 8 4 6 9 7 6 3 0 2 2 3 4 4 5 6 5 7 7 7 15 17 10 10 8 2 4 4 3 5 7 6 8 9 7 7 9 11 13 11 8 6 7 7 8 7 7 8 8 7 9 12 10 4 10 11 17 17 11 14 19 17 14 15 20 23 23
3 1 3 5 4 6 7 8 8 6 5 5 2 3 5 6 7 10 9 5 2 4 6 4 3 5 4 6 5 0 2 0 3 5 2 3 4 3 2 3 4 11 13 6 6 7 4 3 5 4 4 6 6 6 7 8 8 11 14 16 12 7 5 7 7 6 6 6 7 8 10 10 8 7 5 9 15 14 12 15 20 20 17 15 14 20 25 25
3 1 3 4 3 4 5 7 6 3 3 4 2 4 5 5 8 10 7 4 6 2 3 3 4 4 2 4 5 3 6 5 6 7 5 4 5 5 4 5 6 8 7 4 4 5 3 4 5 4 4 8 6 3 7 10 11 15 20 18 13 8 7 7 6 5 6 7 8 7 8 8 5 5 8 11 12 12 12 17 21 18 15 13 15 22 25 23
2 4 4 1 1 2 3 6 5 2 1 4 5 6 4 5 11 10 3 5 10 8 6 4 4 3 3 4 7 10 14 15 12 10 9 10 11 12 14 15 14 10 6 4 5 4 2 4 3 1 4 9 6 2 5 8 9 12 14 11 9 10 9 7 6 6 7 7 6 6 6 6 5 4 6 8 8 9 14 21 24 20 19 20 21 22 22 19
Wind_Direction
357 355 354 351 349 347 345 343 341 340 338 336 333 330 327 325 323 322 321 321 322 322 323 324 322 324 325 323 324 322 321 313 305 292 288 291 202 198 186 175 175 194 222 239 209 208 211 203 209 224 267 282 267 265 278 270 257 233 197 216 248 260 266 238 218 236 228 276 303 342 17 39 22 209 200 181 175 153 149 164 172 194 205 188 167 145 145 152
355 354 351 350 348 346 344 342 340 339 337 335 332 330 327 324 322 320 319 318 319 319 319 320 319 322 322 323 326 325 328 323 315 301 290 298 193 191 179 170 169 199 229 237 228 227 225 216 219 248 289 290 272 262 269 272 257 222 182 202 226 218 239 244 258 272 237 287 301 306 12 9 315 268 185 159 162 137 120 142 162 175 172 170 168 154 156 160
354 352 350 349 347 346 344 342 340 338 336 334 332 330 326 323 321 318 317 316 315 315 315 316 315 317 319 321 324 327 332 329 325 323 30 29 140 174 170 167 169 202 241 238 232 227 230 236 248 273 288 291 279 267 262 272 270 232 206 205 243 222 242 263 265 273 271 331 321 312 352 324 302 306 231 169 160 146 146 165 166 163 162 165 167 165 166 167
354 352 350 349 347 346 344 343 342 339 337 334 331 330 326 323 321 318 316 314 313 312 312 312 311 313 315 317 321 327 334 332 338 105 100 26 61 134 155 161 164 178 228 229 212 215 232 250 263 277 285 286 275 266 251 251 253 230 202 195 237 215 242 268 257 270 316 4 345 304 313 307 306 306 287 199 153 193 195 188 194 186 172 167 173 177 174 172
354 352 350 349 347 346 345 344 342 340 338 334 332 329 326 324 321 318 315 313 311 309 309 309 309 310 310 314 317 322 337 349 2 81 151 18 48 94 138 162 165 168 210 216 210 221 236 250 264 272 268 261 262 255 242 248 239 232 242 229 243 227 230 275 275 282 305 326 321 304 304 294 300 296 279 236 185 245 216 202 203 192 180 180 183 180 178 178
354 352 350 349 347 346 345 343 341 339 337 334 332 328 326 325 321 318 314 312 309 306 307 306 307 308 307 312 312 316 330 266 295 316 212 260 356 79 125 166 172 183 208 212 218 227 237 254 269 275 265 256 269 245 261 267 235 218 264 251 254 251 245 279 288 287 294 305 298 286 286 279 279 282 279 263 253 265 231 207 202 191 185 187 185 179 181 183
353 351 350 348 346 346 344 343 340 338 335 333 331 327 325 323 322 318 314 312 307 304 304 303 305 305 307 308 308 310 293 270 296 300 224 228 247 201 138 171 178 197 208 209 219 223 240 264 276 288 281 266 283 250 283 304 228 202 277 274 265 266 265 282 284 284 296 302 280 277 284 277 257 264 274 263 266 268 217 197 195 186 182 182 184 183 186 185
351 350 348 346 345 344 343 343 340 337 335 332 329 326 323 321 320 316 314 311 305 302 300 300 301 301 306 307 309 304 285 281 301 274 240 221 217 224 182 184 182 204 211 206 215 222 248 271 275 282 268 269 301 281 314 344 331 185 289 283 294 295 289 293 290 281 285 288 279 278 272 267 261 258 260 262 267 257 190 186 185 179 181 183 186 188 189 186
348 346 345 343 342 341 340 341 340 337 334 331 328 324 321 319 317 314 312 309 305 300 295 295 295 298 301 300 306 300 288 285 260 264 269 222 215 223 209 202 193 207 212 209 215 222 244 261 268 268 267 296 307 313 331 11 345 308 294 294 306 300 291 291 291 286 286 286 278 274 266 270 270 267 266 264 262 236 182 181 179 178 184 188 190 192 190 186
342 342 341 339 338 337 337 338 338 337 334 332 328 322 319 316 313 310 307 306 303 297 293 289 289 293 292 293 292 277 299 296 213 257 266 215 211 227 230 219 209 212 213 214 216 222 240 247 268 286 295 301 308 315 329 32 317 310 307 314 311 302 299 296 297 297 296 291 278 258 253 269 270 267 245 259 254 188 177 176 179 183 187 191 192 195 192 189
339 338 338 337 335 334 333 334 335 335 334 332 328 322 318 313 311 306 303 304 301 297 291 284 286 285 283 284 253 248 299 288 216 251 231 205 223 259 258 233 219 217 216 219 218 223 237 242 273 297 301 310 322 316 319 337 325 318 320 322 311 313 313 306 304 295 295 290 277 257 245 271 269 256 236 252 246 176 175 174 182 188 191 194 194 196 195 193
337 335 336 335 334 332 331 331 332 332 333 333 329 325 319 313 308 301 301 303 299 297 291 284 281 278 278 274 260 262 300 279 243 252 223 223 267 281 261 243 235 227 221 223 219 216 228 248 280 293 294 306 321 317 320 329 327 320 326 326 307 324 313 297 293 284 279 265 268 259 261 276 260 239 240 246 224 173 176 177 186 192 194 196 193 197 196 196
336 335 335 334 333 332 331 330 330 330 333 333 330 327 323 315 305 299 302 303 298 296 295 291 279 275 270 264 266 274 282 272 256 245 239 245 254 234 233 241 242 236 229 230 223 219 234 262 284 283 290 300 298 302 314 323 329 321 323 321 305 332 300 284 280 268 259 249 250 223 201 266 255 247 246 249 193 167 177 182 189 194 194 196 195 196 196 196
336 336 335 335 333 331 331 330 329 329 332 334 331 330 327 317 307 303 305 301 296 298 299 294 280 274 259 260 274 283 272 268 244 233 234 237 233 219 228 233 240 240 232 233 229 230 247 274 287 284 288 289 288 309 320 325 333 322 316 318 309 331 285 287 289 254 251 254 231 183 208 252 254 254 251 262 185 169 180 188 190 193 195 196 195 197 196 196
340 339 337 336 334 332 332 330 328 329 333 334 331 332 331 320 311 305 302 300 300 303 301 292 278 269 267 273 282 274 248 242 239 235 226 228 227 212 212 236 243 241 236 238 235 238 259 279 285 286 288 292 304 319 332 333 331 338 308 311 294 257 280 294 301 270 258 263 196 166 230 250 253 260 255 269 200 179 184 190 191 192 196 196 195 197 196 195
345 343 341 340 336 334 333 331 329 328 334 334 329 334 332 318 311 307 305 305 311 316 294 273 273 249 268 286 291 249 211 224 239 244 232 227 226 220 228 258 241 234 233 238 241 254 272 276 277 280 281 290 312 336 346 336 322 345 226 273 277 261 285 302 311 306 309 19 160 179 230 253 254 257 251 257 222 198 188 185 192 194 196 196 195 196 195 194
349 347 346 343 339 338 336 334 332 330 336 334 326 333 332 316 312 307 302 315 340 341 279 236 251 258 254 269 290 271 229 243 247 243 237 226 223 226 225 225 229 229 226 231 243 257 267 267 268 276 274 284 30 57 8 311 287 311 248 251 272 262 274 292 304 316 342 40 181 211 219 249 264 263 256 259 236 215 198 181 189 195 196 196 195 195 194 194
351 349 349 346 342 342 340 337 336 334 339 335 329 335 336 325 317 295 261 350 332 326 284 223 213 286 267 253 254 267 310 314 291 249 233 225 218 220 225 231 233 230 230 236 245 250 257 262 266 288 294 318 11 119 172 254 240 258 266 260 283 278 269 273 280 293 320 356 288 225 218 247 261 268 270 272 239 208 209 197 189 194 197 194 194 194 194 197
352 350 351 348 346 347 342 340 341 340 342 338 334 337 344 7 352 257 299 325 317 302 276 219 200 223 280 251 235 259 298 317 310 255 222 222 219 215 225 237 232 223 222 227 244 240 235 253 319 288 275 249 230 181 206 242 242 258 272 271 281 287 278 276 274 267 282 322 282 235 225 243 255 262 273 275 247 204 216 218 194 192 194 192 193 195 194 199
352 352 352 349 350 351 344 344 347 350 355 350 347 358 30 12 3 302 320 319 309 287 273 256 236 244 259 259 252 265 290 308 302 249 215 215 216 213 218 226 227 222 211 184 220 230 211 216 239 237 244 234 231 221 222 244 255 264 276 277 273 279 281 281 277 277 300 354 265 248 243 253 258 257 254 258 252 226 230 227 190 186 191 191 193 195 195 200
352 352 353 350 353 356 346 346 355 3 10 9 13 36 41 12 3 326 329 320 311 304 286 278 262 253 258 261 262 272 289 295 272 255 227 213 209 209 213 214 217 234 220 196 209 230 204 218 228 229 242 239 236 236 234 249 255 258 264 269 274 273 271 273 271 284 319 51 280 281 283 282 275 269 268 260 258 254 249 232 182 182 190 194 194 194 195 202
352 351 354 350 354 360 350 349 4 14 18 19 34 49 43 19 8 326 328 309 305 309 297 290 276 260 261 261 264 269 274 271 257 264 249 208 199 199 199 193 198 235 223 181 201 261 241 244 240 233 240 244 247 247 242 250 254 257 260 261 272 265 267 278 279 287 318 66 287 289 290 282 276 281 291 287 275 256 256 251 208 187 189 193 194 192 194 202
352 351 353 350 354 1 354 353 8 12 12 11 35 45 31 12 356 322 320 292 297 309 304 293 275 265 268 264 261 250 240 242 246 256 248 198 189 194 189 177 198 223 215 172 190 219 238 252 245 235 239 243 253 255 243 250 258 255 255 253 262 260 260 277 284 294 315 269 267 290 302 283 290 309 296 290 287 271 277 282 252 199 192 194 194 194 196 201
352 351 353 350 353 1 359 359 5 356 341 5 27 31 7 339 328 326 328 298 283 310 324 317 280 279 293 287 249 224 221 228 234 242 236 201 187 189 191 185 189 215 227 209 199 211 234 250 251 242 238 231 242 257 251 250 262 256 252 247 251 254 244 237 263 306 342 321 280 343 354 307 309 329 299 304 317 322 341 346 345 194 196 200 195 194 196 199
352 351 353 350 349 359 3 352 355 346 303 317 322 336 342 329 322 326 331 326 275 301 338 350 288 3 53 99 161 210 218 227 234 237 228 209 195 188 195 194 186 218 232 220 214 224 246 254 257 258 253 242 235 251 251 238 254 266 256 246 239 234 233 246 273 333 6 321 295 48 16 300 300 317 298 328 3 8 12 13 11 30 187 195 191 192 196 199
351 350 353 350 345 353 2 353 351 348 296 281 300 327 337 335 332 317 322 14 326 293 336 0 254 37 25 191 190 198 203 243 260 247 222 214 210 200 196 194 189 224 221 209 223 232 250 252 252 249 254 258 247 252 248 221 229 262 254 245 238 231 244 271 293 327 319 274 279 315 202 269 304 325 320 5 41 21 9 10 358 5 39 175 185 192 197 198
349 348 352 352 345 348 357 353 349 350 323 310 322 336 337 341 341 316 335 42 358 308 318 335 167 255 248 203 185 158 145 306 314 269 214 206 208 202 202 212 200 230 224 193 258 248 257 269 276 268 261 265 254 257 251 218 210 249 264 293 297 304 302 290 298 289 238 255 307 325 176 234 296 297 305 12 53 28 5 3 351 352 5 79 177 193 198 199
349 346 349 352 347 346 350 345 342 344 336 329 333 339 341 344 334 324 63 77 315 313 317 314 337 232 232 206 201 195 232 275 331 315 210 200 202 196 200 214 187 216 226 173 237 263 267 268 278 277 277 279 253 251 257 257 249 238 252 295 308 290 271 267 292 269 257 340 315 310 341 315 276 278 313 9 56 41 8 356 348 345 354 22 153 189 197 197
348 346 347 349 349 348 348 343 338 337 334 334 339 340 340 338 328 4 80 92 290 315 342 347 355 324 325 238 223 231 249 257 250 245 205 194 200 199 204 221 210 225 234 189 211 256 250 250 260 261 263 264 254 257 255 250 261 256 261 281 285 289 263 266 261 249 333 17 267 278 330 37 270 286 331 15 66 73 30 1 345 349 4 26 87 161 183 187
349 347 345 346 350 349 349 346 337 335 335 336 338 337 335 330 348 54 60 265 275 326 350 9 0 348 356 1 289 271 257 263 244 223 212 177 188 198 208 223 222 225 254 237 235 248 253 265 271 250 235 241 250 265 260 247 258 271 302 354 348 345 355 3 21 104 23 297 254 262 196 113 288 286 288 295 148 161 158 78 24 7 20 30 58 114 154 172
349 348 344 344 351 352 354 351 341 337 333 328 330 338 341 338 51 88 83 265 276 333 355 12 354 351 356 352 310 304 302 302 280 197 226 188 179 198 207 227 237 1 329 305 276 274 281 284 280 251 249 252 254 271 279 277 268 258 315 48 359 330 356 10 357 31 336 264 253 251 170 115 211 264 248 238 201 168 192 126 104 63 42 38 47 79 121 158
349 347 344 343 351 1 359 352 346 343 329 324 337 349 18 28 29 123 246 308 327 334 345 343 333 339 338 339 338 332 332 308 281 189 219 234 211 230 213 199 199 234 311 280 280 317 307 272 280 273 267 263 239 271 302 319 354 56 37 47 29 331 350 353 318 319 244 255 251 222 157 122 233 246 222 213 191 152 157 141 120 101 78 63 57 70 91 122
348 347 346 343 352 7 4 357 353 350 338 342 355 353 61 74 345 232 264 323 304 319 335 324 326 335 346 351 346 338 335 317 344 328 264 259 258 263 261 239 211 190 259 237 260 334 313 291 302 303 291 294 157 186 300 309 338 345 306 97 83 9 346 288 275 288 268 267 271 257 275 280 278 273 220 200 189 155 141 131 119 103 92 82 74 76 83 93
349 348 344 344 1 11 13 11 2 358 358 2 10 21 57 86 254 255 310 301 278 341 351 331 326 338 15 5 329 3 2 317 3 4 318 332 293 274 303 290 260 209 213 208 244 224 222 293 296 231 305 330 358 224 215 213 267 280 217 144 156 168 215 257 228 237 262 266 284 305 270 222 229 267 207 154 154 151 137 129 120 110 102 95 88 84 86 88
352 349 345 355 17 19 22 18 7 5 1 359 23 62 74 216 258 300 316 306 320 350 332 327 343 350 358 332 296 32 34 333 353 8 346 7 346 282 295 287 269 97 105 178 266 219 175 249 257 260 261 340 359 318 288 50 326 272 342 61 270 192 186 246 214 206 238 273 284 287 237 212 210 267 104 111 133 142 132 126 117 112 108 102 98 93 89 89
354 355 1 16 14 16 20 12 5 1 351 359 46 73 182 214 228 199 307 324 340 348 338 345 18 22 339 329 318 9 15 343 342 3 348 353 343 310 325 316 319 56 130 178 254 278 1 261 282 319 310 8 12 335 334 16 288 278 0 311 250 182 136 4 288 278 17 298 272 235 250 284 14 2 40 87 130 146 148 131 118 120 118 109 107 103 96 93
358 2 19 18 2 4 4 355 352 348 342 21 83 200 235 228 259 297 304 323 328 3 33 21 343 354 340 332 322 344 352 336 347 6 342 327 327 343 356 338 348 14 95 124 259 262 300 276 282 302 290 325 355 351 345 335 193 72 329 268 255 43 69 76 331 326 350 288 279 258 229 231 137 249 259 177 184 182 181 146 124 126 124 118 116 110 102 98
356 357 10 9 354 349 337 329 334 337 345 55 88 243 230 241 307 325 312 308 330 18 68 103 282 331 13 329 301 327 347 341 352 357 337 318 300 349 7 341 357 4 2 32 36 283 352 299 287 304 280 318 353 0 343 330 358 61 227 263 317 326 302 48 104 288 282 266 282 284 243 220 203 205 197 199 203 192 185 169 144 138 130 124 120 114 107 102
349 347 324 306 334 326 319 318 324 330 10 67 247 252 277 263 284 309 310 309 344 64 81 180 228 344 346 292 271 311 343 325 334 344 343 326 303 344 16 0 353 357 356 18 60 300 1 334 282 315 344 322 350 7 304 315 337 348 343 343 12 183 218 222 175 171 204 242 261 279 277 247 232 205 188 196 200 185 180 172 154 152 141 127 119 115 110 104
346 345 310 292 313 312 318 323 326 346 68 101 215 243 309 287 290 310 314 310 282 111 231 229 211 284 281 279 270 285 321 202 220 280 234 289 310 320 6 11 354 343 349 21 60 332 0 23 271 297 343 339 324 305 268 302 324 334 341 333 325 311 242 250 260 160 162 215 232 258 275 259 253 221 192 195 192 181 176 166 163 164 144 127 121 120 118 116
351 351 346 342 332 326 335 342 347 47 83 251 242 256 302 299 306 321 330 332 305 194 205 214 202 240 243 276 287 265 294 273 253 229 226 278 314 291 4 5 348 329 349 25 38 347 28 109 261 287 330 309 249 255 287 302 296 276 266 281 287 295 305 289 290 280 204 213 202 217 259 262 280 303 189 171 151 102 19 46 155 159 144 134 127 127 129 128
356 346 358 1 350 346 353 357 350 18 147 297 313 299 305 307 309 329 342 348 349 2 52 138 195 297 246 261 294 285 348 294 263 261 242 264 253 241 346 356 346 339 351 342 309 275 167 144 263 270 275 250 249 263 270 277 280 269 254 227 155 347 64 121 264 285 300 278 208 163 256 261 295 7 48 56 66 48 15 356 342 349 133 139 133 125 123 123
350 326 342 11 354 353 6 12 353 4 295 327 335 323 318 313 329 356 351 350 354 352 354 8 153 331 293 307 342 331 352 311 251 263 267 276 283 279 342 360 352 340 342 322 322 332 309 325 306 291 290 295 298 293 284 288 289 279 290 23 94 75 99 170 230 277 292 275 280 292 258 259 295 22 67 65 66 60 27 354 335 326 8 119 133 128 114 111
345 317 312 15 359 355 17 40 347 351 324 339 347 337 334 336 8 12 352 334 345 351 346 338 348 356 290 330 18 278 304 323 269 299 304 282 308 322 354 5 0 348 342 315 285 348 319 275 297 317 311 314 331 340 334 337 352 295 285 276 117 43 11 250 296 30 313 270 259 229 245 260 284 5 76 75 71 72 45 8 330 305 309 3 129 128 108 111
356 324 307 343 4 27 51 63 38 5 335 348 343 325 336 342 348 356 344 325 346 14 1 318 332 358 348 357 4 300 294 40 284 319 337 334 338 343 353 358 358 0 350 327 276 183 218 238 222 271 280 283 297 299 285 289 301 297 286 271 270 352 2 3 30 41 277 298 325 237 255 288 304 347 85 101 91 87 156 189 243 285 300 304 134 106 96 120
20 357 317 335 359 42 54 47 36 26 350 353 341 313 334 327 321 343 353 338 348 0 347 319 353 9 11 14 7 337 352 354 321 348 0 341 345 343 345 348 352 3 360 348 339 324 220 256 212 209 228 248 260 261 243 219 268 275 279 286 290 288 150 129 114 227 214 279 305 254 224 280 307 350 68 107 117 135 206 216 220 261 290 267 191 178 179 152
40 58 351 343 345 2 18 20 20 13 342 349 334 286 321 327 312 336 347 341 358 3 358 32 33 24 3 9 3 310 345 348 337 0 350 328 325 320 335 344 350 2 7 358 350 350 70 316 282 227 242 255 258 268 267 259 266 267 270 278 282 278 235 185 225 230 190 218 281 255 216 274 282 242 145 0 73 155 212 220 210 214 237 229 183 170 171 156
36 43 56 22 324 331 3 352 350 345 338 345 323 256 307 322 306 322 330 333 7 20 21 31 26 18 357 2 351 283 342 351 348 355 340 338 344 333 337 339 338 356 6 358 348 356 163 265 272 235 271 281 284 292 288 280 271 272 273 270 271 274 254 225 237 235 194 195 250 243 219 263 275 260 212 185 300 283 259 235 231 243 247 221 175 158 152 148
43 8 354 3 307 290 308 320 328 336 338 335 321 278 314 319 316 324 326 323 356 27 40 45 3 360 2 8 15 345 355 352 318 327 336 342 342 334 333 320 324 353 360 351 340 339 287 263 275 265 281 290 296 295 298 304 292 285 283 273 267 261 228 219 243 244 219 217 246 256 250 250 261 270 227 169 202 251 262 277 302 294 272 240 198 165 151 150
70 43 324 338 323 305 314 327 335 340 334 333 329 321 334 353 355 337 330 348 15 10 31 48 325 327 354 10 14 129 186 229 261 271 306 353 337 328 319 297 318 342 342 332 327 334 322 290 309 330 315 294 294 301 310 318 315 304 292 279 276 276 243 233 239 234 230 237 241 252 267 267 252 250 250 206 205 230 269 295 294 276 250 233 204 165 151 150
119 173 308 339 329 316 334 339 339 339 330 346 4 339 343 11 2 334 318 36 69 61 6 357 310 305 341 357 349 252 249 273 261 257 264 270 279 272 259 280 306 319 320 300 299 327 339 296 304 349 321 280 280 324 328 335 337 311 291 281 278 275 259 248 236 217 225 246 253 248 255 271 258 230 256 250 219 208 232 253 250 226 193 179 167 151 146 145
155 185 187 160 301 319 356 337 332 353 340 351 358 349 343 348 353 355 347 5 10 1 342 317 286 313 344 332 328 309 297 295 285 278 277 274 275 266 258 265 271 271 277 285 274 259 242 266 275 288 284 277 276 339 358 351 331 295 281 273 257 245 243 246 253 250 235 231 243 246 239 255 269 266 275 274 251 227 224 223 215 191 160 152 153 151 150 147
Height
1554 1553 1551 1550 1549 1547 1546 1544 1543 1542 1541 1539 1538 1537 1535 1534 1533 1531 1530 1529 1528 1527 1526 1525 1524 1523 1522 1520 1519 1519 1518 1517 1516 1515 1514 1512 1512 1513 1514 1514 1515 1515 1516 1516 1517 1517 1517 1517 1518 1519 1519 1518 1518 1516 1515 1515 1515 1518 1519 1521 1522 1519 1514 1508 1505 1504 1500 1497 1493 1491 1490 1491 1493 1493 1491 1492 1493 1493 1493 1494 1495 1495 1495 1496 1497 1497 1499 1500
1554 1552 1551 1550 1548 1547 1545 1544 1542 1541 1540 1538 1537 1536 1534 1533 1532 1531 1529 1528 1527 1526 1525 1524 1523 1522 1521 1520 1519 1518 1517 1516 1514 1513 1512 1511 1511 1512 1512 1513 1514 1514 1515 1516 1516 1516 1517 1517 1518 1519 1519 1518 1518 1515 1513 1513 1513 1515 1515 1517 1516 1512 1506 1500 1499 1498 1497 1496 1492 1491 1490 1490 1491 1491 1490 1491 1493 1493 1494 1495 1495 1495 1494 1495 1496 1497 1498 1498
1553 1552 1551 1549 1548 1546 1545 1543 1542 1540 1539 1537 1536 1535 1533 1532 1531 1529 1528 1527 1526 1525 1524 1523 1522 1521 1520 1519 1518 1517 1516 1514 1512 1511 1511 1510 1510 1511 1511 1512 1512 1513 1514 1515 1515 1516 1516 1517 1518 1518 1518 1517 1516 1515 1514 1512 1511 1510 1511 1514 1510 1504 1501 1496 1496 1496 1494 1493 1491 1491 1490 1489 1489 1489 1489 1490 1492 1493 1492 1493 1493 1493 1493 1494 1495 1496 1497 1497
1553 1551 1550 1548 1547 1545 1544 1542 1541 1539 1538 1536 1535 1533 1532 1531 1529 1528 1527 1526 1525 1524 1523 1522 1521 1520 1519 1518 1517 1517 1515 1514 1511 1510 1511 1510 1510 1510 1511 1511 1512 1512 1513 1514 1515 1515 1515 1516 1517 1517 1518 1517 1514 1514 1513 1511 1510 1508 1508 1509 1502 1499 1499 1495 1494 1495 1492 1491 1490 1490 1489 1489 1487 1488 1488 1488 1493 1494 1490 1488 1488 1490 1491 1493 1494 1494 1495 1495
1552 1551 1549 1547 1546 1544 1543 1541 1539 1538 1537 1535 1533 1532 1531 1529 1528 1527 1525 1525 1524 1523 1522 1521 1520 1519 1518 1517 1517 1516 1516 1516 1511 1510 1511 1510 1510 1510 1510 1511 1511 1512 1513 1514 1514 1514 1514 1515 1516 1517 1518 1515 1512 1512 1510 1507 1508 1507 1504 1501 1496 1497 1498 1492 1491 1493 1491 1490 1489 1489 1489 1489 1487 1486 1486 1486 1490 1490 1487 1485 1485 1487 1489 1491 1491 1492 1493 1493
1552 1550 1548 1547 1545 1543 1542 1540 1538 1537 1535 1534 1532 1531 1529 1528 1527 1525 1524 1523 1522 1521 1521 1520 1519 1518 1517 1516 1516 1515 1516 1515 1510 1509 1510 1510 1510 1510 1511 1511 1511 1511 1512 1513 1513 1513 1513 1514 1515 1516 1516 1513 1511 1509 1506 1504 1504 1505 1502 1498 1495 1496 1495 1491 1490 1491 1490 1489 1488 1488 1488 1487 1486 1486 1485 1484 1484 1483 1482 1483 1484 1486 1487 1488 1489 1489 1491 1491
1551 1549 1548 1546 1544 1542 1541 1539 1537 1536 1534 1532 1531 1529 1528 1527 1525 1524 1522 1521 1520 1520 1519 1518 1518 1517 1516 1515 1515 1514 1514 1511 1508 1508 1508 1509 1510 1510 1510 1510 1510 1511 1511 1512 1512 1512 1513 1513 1513 1513 1514 1512 1510 1506 1503 1501 1500 1502 1503 1499 1496 1495 1492 1490 1489 1490 1489 1489 1487 1487 1487 1485 1486 1486 1484 1482 1481 1480 1480 1481 1483 1485 1486 1487 1487 1488 1488 1489
1551 1549 1547 1545 1543 1541 1540 1538 1536 1535 1533 1531 1530 1528 1527 1525 1524 1523 1521 1520 1519 1518 1518 1517 1517 1516 1515 1514 1514 1513 1511 1507 1506 1507 1507 1507 1509 1509 1509 1509 1509 1509 1510 1511 1511 1512 1512 1511 1511 1511 1512 1510 1508 1505 1502 1500 1500 1501 1502 1498 1496 1494 1491 1490 1489 1489 1488 1488 1486 1486 1485 1483 1482 1483 1482 1480 1479 1479 1479 1480 1482 1485 1485 1485 1485 1485 1486 1486
1550 1548 1546 1544 1542 1541 1539 1537 1535 1534 1532 1530 1528 1527 1525 1524 1522 1521 1520 1518 1517 1516 1516 1515 1515 1515 1514 1513 1513 1512 1507 1505 1505 1506 1506 1506 1507 1507 1508 1507 1508 1508 1509 1510 1510 1511 1511 1509 1509 1509 1510 1508 1506 1504 1502 1502 1503 1500 1498 1496 1494 1492 1490 1489 1488 1487 1487 1485 1484 1484 1482 1480 1479 1481 1480 1477 1476 1477 1478 1479 1480 1482 1482 1482 1482 1483 1482 1482
1549 1547 1545 1543 1541 1540 1537 1536 1534 1532 1530 1529 1527 1525 1524 1522 1521 1519 1518 1517 1515 1515 1514 1514 1514 1513 1513 1512 1513 1511 1505 1504 1505 1504 1505 1505 1506 1506 1506 1506 1507 1507 1508 1508 1509 1509 1509 1508 1507 1508 1508 1506 1504 1503 1501 1503 1502 1498 1495 1493 1491 1489 1487 1487 1486 1484 1485 1483 1482 1483 1482 1478 1477 1481 1480 1474 1473 1475 1476 1477 1479 1479 1478 1478 1480 1480 1481 1481
1548 1546 1544 1542 1540 1538 1536 1534 1532 1531 1529 1527 1525 1524 1522 1521 1519 1517 1516 1515 1514 1513 1512 1512 1512 1512 1512 1511 1511 1509 1503 1503 1504 1504 1505 1504 1505 1505 1505 1506 1506 1506 1507 1507 1507 1508 1507 1506 1507 1508 1508 1505 1503 1501 1500 1500 1499 1496 1494 1492 1489 1488 1485 1484 1484 1483 1484 1482 1479 1480 1481 1477 1476 1479 1476 1470 1471 1473 1474 1477 1477 1476 1475 1476 1478 1479 1480 1480
1546 1545 1543 1541 1539 1537 1535 1533 1531 1529 1527 1525 1524 1522 1521 1519 1517 1515 1514 1513 1512 1512 1511 1510 1511 1510 1510 1509 1507 1504 1503 1503 1503 1504 1504 1504 1505 1505 1505 1505 1505 1506 1506 1506 1506 1506 1506 1506 1507 1508 1507 1505 1503 1501 1499 1497 1496 1494 1494 1495 1491 1489 1487 1482 1481 1482 1483 1481 1476 1479 1485 1481 1476 1474 1468 1466 1469 1470 1473 1475 1474 1473 1474 1475 1476 1478 1479 1480
1545 1543 1541 1540 1538 1536 1534 1531 1529 1527 1526 1524 1522 1520 1519 1517 1515 1513 1512 1512 1511 1510 1509 1509 1509 1509 1509 1506 1502 1501 1503 1503 1503 1503 1504 1504 1504 1504 1505 1505 1505 1506 1506 1506 1506 1506 1507 1507 1508 1507 1506 1505 1502 1501 1499 1495 1496 1494 1494 1496 1495 1496 1490 1479 1479 1480 1478 1476 1472 1479 1491 1485 1474 1469 1463 1464 1468 1469 1472 1472 1471 1472 1472 1474 1475 1476 1477 1478
1544 1542 1540 1538 1536 1534 1532 1530 1528 1526 1524 1522 1520 1519 1517 1515 1513 1512 1511 1510 1509 1509 1508 1508 1507 1508 1507 1502 1498 1500 1501 1501 1501 1501 1502 1503 1504 1504 1504 1504 1505 1505 1505 1505 1505 1506 1507 1507 1508 1506 1505 1504 1501 1500 1498 1496 1497 1497 1496 1497 1499 1503 1493 1475 1474 1479 1475 1470 1466 1477 1491 1484 1472 1466 1461 1463 1466 1466 1468 1469 1469 1470 1471 1472 1473 1474 1475 1476
1543 1541 1539 1537 1535 1533 1531 1529 1526 1524 1522 1520 1518 1517 1515 1513 1512 1511 1510 1509 1508 1508 1507 1507 1506 1507 1505 1499 1497 1499 1498 1498 1497 1497 1500 1502 1503 1504 1503 1504 1504 1504 1505 1505 1505 1506 1506 1506 1507 1505 1504 1503 1501 1501 1502 1501 1499 1499 1503 1503 1501 1503 1494 1476 1470 1474 1473 1466 1464 1475 1486 1480 1471 1465 1460 1461 1463 1462 1463 1465 1467 1468 1468 1470 1471 1473 1474 1475
1542 1540 1538 1536 1534 1532 1530 1528 1525 1523 1521 1519 1517 1515 1514 1512 1510 1509 1509 1507 1507 1506 1506 1506 1505 1506 1505 1498 1495 1497 1496 1496 1496 1497 1499 1500 1501 1502 1503 1504 1504 1504 1504 1505 1505 1505 1505 1506 1505 1505 1503 1503 1503 1504 1506 1508 1506 1503 1506 1507 1502 1501 1498 1485 1472 1469 1469 1467 1468 1473 1479 1477 1469 1462 1458 1459 1461 1460 1460 1462 1464 1465 1465 1466 1468 1470 1472 1473
1541 1539 1537 1535 1532 1531 1529 1526 1524 1522 1520 1518 1515 1514 1512 1510 1509 1508 1507 1507 1506 1506 1505 1505 1504 1505 1502 1496 1495 1496 1496 1496 1496 1497 1497 1498 1500 1501 1502 1503 1503 1504 1504 1505 1506 1505 1505 1505 1505 1504 1503 1503 1504 1506 1514 1519 1514 1507 1505 1506 1501 1498 1499 1492 1479 1470 1467 1469 1472 1472 1474 1473 1466 1459 1456 1456 1458 1458 1458 1460 1461 1462 1463 1463 1466 1468 1470 1471
1541 1538 1536 1534 1532 1530 1527 1525 1523 1521 1519 1517 1514 1512 1511 1509 1508 1507 1506 1506 1506 1505 1505 1504 1505 1505 1499 1493 1494 1494 1494 1496 1496 1496 1496 1497 1499 1500 1501 1501 1502 1504 1504 1505 1505 1504 1505 1504 1504 1505 1504 1505 1505 1509 1519 1518 1511 1507 1505 1506 1502 1497 1496 1493 1484 1474 1468 1470 1472 1472 1473 1470 1463 1458 1456 1455 1456 1456 1456 1457 1458 1458 1460 1461 1464 1466 1467 1468
1540 1538 1536 1533 1531 1529 1527 1525 1522 1520 1519 1516 1514 1511 1509 1508 1508 1506 1506 1506 1505 1504 1504 1503 1502 1503 1497 1492 1493 1493 1493 1494 1494 1494 1495 1496 1498 1499 1500 1501 1502 1503 1504 1506 1505 1504 1504 1504 1506 1508 1507 1506 1505 1507 1511 1506 1503 1503 1502 1504 1503 1499 1494 1487 1481 1471 1467 1471 1471 1471 1472 1468 1463 1459 1455 1453 1453 1454 1453 1453 1455 1457 1458 1459 1462 1463 1463 1465
1540 1537 1535 1533 1530 1528 1526 1524 1522 1521 1519 1516 1513 1509 1509 1510 1509 1507 1504 1502 1503 1503 1500 1500 1499 1496 1493 1492 1492 1493 1493 1493 1492 1493 1494 1495 1497 1498 1499 1501 1501 1502 1503 1505 1505 1503 1503 1507 1509 1508 1505 1504 1503 1503 1502 1499 1500 1501 1501 1502 1500 1499 1494 1483 1477 1468 1463 1471 1470 1467 1468 1467 1463 1458 1454 1452 1451 1451 1451 1451 1453 1455 1455 1456 1458 1459 1460 1461
1539 1537 1535 1532 1530 1528 1526 1524 1522 1521 1519 1517 1513 1511 1514 1517 1516 1514 1507 1498 1497 1499 1496 1494 1495 1492 1489 1490 1491 1493 1495 1493 1492 1492 1494 1495 1496 1498 1499 1499 1501 1503 1502 1502 1504 1502 1503 1507 1507 1503 1500 1499 1499 1498 1499 1499 1499 1500 1501 1502 1500 1498 1492 1480 1474 1466 1461 1470 1469 1464 1466 1464 1458 1454 1450 1448 1449 1449 1446 1446 1448 1450 1451 1452 1453 1455 1457 1459
1539 1536 1534 1532 1530 1528 1526 1524 1523 1522 1520 1518 1515 1515 1519 1521 1521 1520 1515 1503 1493 1492 1491 1489 1490 1488 1486 1488 1489 1492 1496 1495 1492 1491 1493 1495 1495 1497 1497 1498 1500 1501 1501 1501 1504 1506 1507 1505 1501 1498 1496 1496 1497 1496 1498 1498 1497 1499 1499 1501 1501 1495 1488 1479 1471 1465 1462 1469 1470 1463 1465 1463 1455 1451 1448 1446 1446 1445 1442 1441 1442 1443 1446 1448 1451 1452 1454 1457
1539 1536 1534 1531 1529 1528 1525 1524 1523 1522 1520 1519 1517 1518 1519 1520 1520 1519 1518 1511 1496 1487 1487 1486 1486 1484 1484 1486 1487 1489 1492 1493 1492 1490 1491 1493 1493 1494 1495 1496 1499 1499 1500 1502 1504 1509 1510 1501 1493 1493 1494 1496 1496 1494 1495 1497 1497 1497 1496 1500 1499 1489 1488 1484 1472 1465 1464 1467 1468 1464 1465 1462 1456 1453 1449 1446 1444 1443 1442 1439 1438 1439 1441 1443 1446 1448 1450 1454
1539 1536 1534 1531 1529 1528 1525 1524 1523 1522 1521 1519 1518 1519 1519 1519 1519 1517 1514 1511 1501 1489 1485 1485 1484 1484 1484 1484 1485 1487 1488 1489 1489 1488 1489 1491 1490 1492 1493 1494 1497 1499 1499 1499 1500 1505 1504 1494 1488 1491 1492 1494 1496 1492 1493 1497 1498 1494 1491 1494 1491 1483 1483 1481 1472 1468 1466 1465 1464 1464 1469 1465 1458 1458 1454 1447 1445 1444 1442 1439 1437 1437 1438 1439 1441 1444 1447 1450
1538 1536 1533 1530 1529 1527 1525 1524 1523 1522 1521 1520 1519 1519 1519 1518 1516 1516 1513 1512 1506 1492 1485 1485 1485 1484 1484 1484 1485 1485 1486 1486 1486 1485 1487 1488 1489 1491 1492 1492 1496 1499 1498 1497 1499 1502 1497 1489 1487 1490 1490 1491 1494 1492 1490 1494 1497 1493 1487 1482 1480 1478 1476 1474 1472 1472 1475 1476 1465 1464 1480 1476 1460 1458 1458 1453 1451 1450 1446 1443 1441 1440 1438 1439 1441 1444 1447 1449
1538 1536 1533 1530 1528 1526 1526 1524 1522 1522 1520 1520 1520 1519 1519 1517 1515 1515 1514 1516 1509 1492 1487 1488 1486 1486 1485 1485 1485 1484 1488 1486 1482 1483 1485 1486 1487 1489 1492 1493 1493 1495 1495 1494 1496 1497 1492 1486 1486 1489 1489 1489 1491 1490 1486 1487 1494 1494 1482 1472 1471 1473 1472 1472 1472 1475 1482 1482 1466 1462 1481 1484 1466 1459 1459 1458 1457 1456 1452 1448 1446 1443 1441 1440 1441 1444 1446 1448
1538 1536 1533 1531 1528 1525 1525 1524 1523 1522 1520 1520 1519 1518 1518 1515 1515 1514 1513 1520 1513 1493 1489 1490 1487 1487 1485 1485 1484 1486 1491 1487 1480 1481 1482 1484 1486 1486 1491 1492 1491 1492 1489 1492 1498 1494 1487 1486 1486 1486 1487 1488 1488 1487 1481 1480 1488 1489 1475 1469 1471 1471 1472 1472 1473 1476 1477 1474 1469 1463 1469 1479 1474 1463 1460 1459 1458 1459 1458 1454 1450 1445 1443 1440 1439 1441 1443 1445
1538 1536 1534 1532 1529 1526 1524 1523 1523 1521 1521 1520 1518 1518 1516 1514 1516 1514 1516 1526 1514 1493 1490 1490 1487 1487 1485 1485 1484 1484 1487 1484 1483 1482 1479 1482 1484 1484 1488 1488 1489 1490 1485 1492 1501 1493 1485 1486 1486 1484 1486 1487 1485 1481 1476 1476 1482 1479 1469 1468 1470 1470 1472 1471 1472 1475 1473 1474 1479 1468 1463 1479 1480 1464 1460 1460 1460 1464 1463 1459 1456 1451 1447 1442 1438 1438 1439 1441
1538 1535 1533 1532 1529 1527 1525 1523 1522 1521 1521 1519 1518 1517 1515 1515 1516 1514 1521 1527 1509 1492 1492 1491 1488 1489 1486 1486 1485 1483 1483 1483 1484 1483 1479 1481 1482 1482 1485 1484 1484 1487 1485 1488 1494 1489 1483 1482 1480 1481 1484 1483 1479 1474 1472 1474 1477 1471 1466 1468 1468 1468 1469 1469 1471 1472 1473 1481 1485 1472 1466 1481 1484 1466 1461 1464 1463 1467 1465 1460 1458 1454 1451 1445 1440 1439 1440 1442
1538 1535 1533 1531 1529 1528 1526 1524 1522 1521 1519 1517 1518 1516 1514 1516 1515 1519 1530 1524 1505 1496 1494 1491 1492 1492 1489 1489 1488 1485 1483 1483 1482 1481 1480 1481 1481 1480 1481 1482 1482 1484 1485 1485 1486 1484 1479 1477 1477 1477 1477 1475 1473 1471 1469 1470 1470 1467 1467 1468 1468 1469 1467 1468 1469 1470 1480 1489 1483 1473 1468 1477 1485 1473 1465 1465 1463 1464 1463 1459 1458 1455 1452 1449 1444 1441 1441 1444
1538 1536 1533 1531 1530 1527 1525 1524 1522 1521 1519 1518 1517 1515 1515 1516 1517 1527 1530 1515 1504 1502 1496 1496 1497 1493 1492 1494 1493 1488 1485 1484 1482 1482 1483 1481 1482 1482 1482 1484 1485 1487 1490 1488 1485 1481 1478 1479 1477 1472 1470 1470 1470 1470 1467 1465 1465 1467 1469 1470 1473 1476 1473 1474 1474 1475 1490 1493 1479 1472 1468 1474 1485 1476 1464 1463 1459 1460 1462 1458 1457 1455 1454 1452 1449 1445 1444 1447
1538 1536 1533 1531 1530 1528 1526 1525 1523 1522 1520 1518 1517 1515 1516 1520 1523 1528 1521 1508 1510 1510 1502 1503 1501 1496 1496 1494 1493 1491 1488 1487 1483 1483 1484 1483 1484 1484 1483 1485 1486 1492 1496 1492 1488 1485 1481 1478 1474 1470 1468 1467 1471 1473 1471 1466 1465 1467 1470 1473 1483 1491 1491 1493 1491 1489 1494 1490 1475 1470 1469 1475 1479 1468 1460 1460 1457 1457 1460 1458 1455 1453 1452 1453 1453 1451 1448 1449
1537 1535 1533 1531 1530 1529 1527 1525 1523 1522 1520 1518 1517 1515 1518 1526 1528 1525 1518 1512 1515 1510 1504 1504 1501 1498 1499 1496 1495 1492 1488 1488 1486 1486 1485 1484 1486 1485 1483 1482 1482 1488 1493 1492 1492 1491 1487 1480 1473 1472 1469 1466 1469 1474 1477 1474 1469 1469 1471 1475 1486 1497 1504 1507 1503 1499 1498 1486 1471 1466 1471 1479 1476 1463 1457 1458 1457 1455 1454 1455 1455 1452 1450 1451 1454 1454 1452 1451
1537 1535 1533 1531 1530 1529 1527 1526 1524 1522 1520 1519 1518 1517 1523 1530 1527 1520 1518 1515 1511 1507 1505 1504 1501 1498 1499 1499 1499 1495 1493 1491 1488 1489 1489 1487 1490 1489 1485 1483 1482 1483 1486 1491 1492 1492 1495 1491 1478 1474 1474 1470 1469 1471 1474 1473 1471 1470 1468 1472 1481 1486 1496 1503 1499 1497 1495 1485 1475 1472 1476 1479 1473 1463 1456 1456 1458 1457 1454 1453 1453 1453 1451 1450 1453 1456 1455 1454
1536 1534 1533 1531 1531 1529 1527 1526 1524 1522 1522 1519 1519 1523 1528 1530 1526 1522 1519 1514 1510 1509 1507 1504 1502 1502 1502 1501 1498 1497 1499 1497 1491 1492 1493 1493 1495 1493 1487 1484 1482 1482 1486 1493 1492 1489 1495 1492 1476 1472 1472 1470 1471 1469 1467 1470 1475 1472 1467 1472 1479 1477 1480 1488 1491 1489 1488 1488 1484 1477 1473 1469 1463 1460 1456 1457 1460 1459 1458 1456 1453 1454 1453 1451 1453 1457 1457 1456
1536 1534 1533 1532 1531 1530 1528 1527 1525 1524 1523 1521 1523 1528 1528 1526 1524 1521 1518 1513 1512 1511 1509 1507 1506 1507 1508 1504 1500 1499 1500 1499 1496 1496 1496 1495 1495 1493 1489 1487 1484 1484 1486 1491 1491 1490 1495 1489 1474 1471 1470 1467 1471 1469 1466 1472 1477 1473 1472 1475 1475 1469 1471 1482 1489 1486 1487 1494 1489 1478 1471 1466 1465 1464 1459 1460 1462 1461 1460 1458 1454 1455 1455 1454 1455 1457 1458 1458
1536 1534 1533 1533 1532 1530 1529 1529 1527 1526 1524 1523 1527 1529 1527 1523 1520 1518 1515 1513 1513 1512 1512 1515 1512 1510 1515 1512 1507 1505 1502 1500 1500 1502 1502 1499 1495 1493 1491 1488 1486 1485 1485 1486 1488 1489 1494 1492 1478 1474 1474 1469 1468 1466 1464 1467 1470 1474 1478 1473 1468 1468 1471 1482 1496 1495 1493 1499 1491 1479 1475 1472 1473 1472 1463 1462 1464 1462 1461 1458 1455 1456 1456 1456 1456 1457 1458 1458
1535 1534 1534 1533 1532 1531 1530 1529 1528 1527 1525 1525 1528 1528 1526 1523 1519 1516 1515 1513 1513 1512 1514 1520 1516 1511 1516 1518 1513 1509 1507 1507 1506 1507 1507 1502 1497 1494 1492 1490 1487 1485 1484 1484 1487 1487 1489 1492 1483 1475 1477 1473 1468 1469 1469 1466 1465 1471 1475 1469 1470 1480 1481 1486 1501 1504 1503 1505 1494 1480 1476 1473 1471 1468 1462 1461 1462 1460 1459 1458 1456 1456 1455 1455 1456 1456 1457 1457
1535 1534 1533 1533 1532 1531 1530 1529 1528 1528 1527 1527 1530 1528 1524 1522 1518 1516 1516 1514 1513 1513 1515 1518 1515 1513 1515 1515 1514 1510 1508 1511 1511 1510 1510 1506 1500 1495 1492 1492 1489 1487 1485 1483 1488 1488 1487 1494 1491 1479 1477 1477 1472 1475 1480 1477 1470 1467 1469 1470 1472 1479 1482 1483 1489 1492 1497 1503 1495 1485 1480 1472 1461 1456 1455 1456 1456 1456 1457 1457 1456 1455 1454 1453 1454 1455 1456 1456
1536 1534 1533 1533 1533 1532 1530 1529 1528 1528 1529 1529 1531 1528 1523 1521 1518 1516 1516 1514 1512 1513 1514 1514 1514 1515 1513 1511 1512 1511 1509 1510 1510 1510 1510 1505 1502 1497 1493 1492 1491 1489 1488 1485 1489 1490 1487 1494 1495 1483 1479 1482 1481 1480 1481 1483 1480 1476 1477 1479 1478 1478 1478 1479 1480 1479 1484 1494 1494 1489 1485 1469 1451 1447 1448 1447 1449 1452 1453 1453 1454 1454 1453 1452 1453 1454 1455 1456
1537 1535 1534 1534 1533 1531 1530 1529 1529 1529 1531 1531 1530 1528 1524 1522 1518 1516 1515 1514 1512 1511 1511 1512 1512 1513 1513 1511 1511 1510 1509 1509 1508 1509 1508 1504 1504 1502 1496 1494 1493 1491 1490 1488 1490 1491 1490 1494 1495 1489 1486 1486 1484 1479 1477 1478 1480 1480 1482 1482 1482 1481 1480 1486 1489 1478 1474 1482 1484 1485 1484 1468 1451 1448 1447 1446 1451 1455 1457 1457 1456 1454 1453 1453 1453 1454 1455 1456
1538 1536 1535 1534 1533 1531 1529 1529 1530 1531 1531 1531 1530 1527 1525 1522 1520 1517 1516 1514 1512 1510 1509 1510 1511 1512 1512 1511 1511 1510 1510 1510 1508 1508 1506 1503 1504 1503 1498 1496 1495 1492 1492 1492 1492 1492 1491 1493 1495 1491 1487 1485 1482 1477 1476 1476 1474 1474 1477 1479 1480 1482 1484 1493 1497 1487 1478 1478 1476 1479 1481 1467 1455 1453 1451 1451 1455 1460 1465 1468 1465 1461 1457 1455 1454 1454 1455 1457
1538 1537 1535 1534 1533 1531 1531 1531 1532 1533 1533 1531 1529 1527 1525 1523 1521 1520 1518 1516 1514 1512 1511 1510 1510 1511 1511 1511 1511 1511 1511 1511 1508 1506 1505 1503 1501 1500 1498 1498 1497 1495 1494 1494 1493 1492 1492 1494 1496 1493 1486 1482 1479 1475 1473 1474 1472 1473 1476 1478 1480 1482 1484 1489 1491 1490 1489 1483 1477 1481 1480 1466 1457 1454 1453 1455 1457 1459 1466 1472 1473 1469 1462 1457 1455 1455 1456 1457
1539 1537 1535 1534 1533 1532 1533 1535 1536 1537 1535 1533 1530 1528 1526 1524 1523 1523 1522 1520 1517 1515 1514 1512 1511 1512 1511 1510 1511 1511 1512 1513 1509 1505 1504 1504 1501 1499 1499 1499 1499 1498 1497 1496 1495 1494 1496 1496 1498 1501 1499 1492 1486 1483 1480 1476 1476 1478 1480 1480 1480 1480 1482 1484 1485 1488 1491 1484 1479 1482 1477 1465 1458 1455 1453 1456 1458 1460 1463 1469 1473 1472 1465 1459 1456 1454 1455 1456
1539 1536 1534 1534 1534 1534 1536 1538 1539 1540 1538 1536 1534 1531 1528 1525 1524 1524 1523 1521 1519 1518 1517 1516 1513 1512 1511 1511 1512 1511 1511 1513 1512 1508 1506 1506 1504 1501 1500 1501 1501 1500 1499 1497 1494 1494 1496 1496 1496 1503 1511 1508 1501 1496 1491 1484 1481 1482 1481 1480 1479 1480 1482 1483 1485 1492 1494 1486 1482 1483 1478 1467 1461 1459 1456 1456 1458 1460 1462 1465 1469 1469 1465 1460 1456 1454 1455 1455
1541 1539 1537 1535 1534 1534 1537 1538 1539 1541 1541 1540 1538 1533 1531 1528 1525 1523 1522 1521 1518 1517 1518 1517 1515 1514 1515 1516 1516 1516 1514 1514 1514 1512 1513 1514 1511 1507 1506 1504 1503 1502 1500 1498 1496 1495 1495 1494 1494 1497 1501 1500 1496 1491 1486 1484 1485 1484 1482 1479 1479 1480 1481 1481 1487 1492 1490 1486 1484 1482 1478 1472 1465 1463 1462 1459 1461 1464 1462 1462 1463 1462 1462 1460 1456 1455 1455 1454
1544 1544 1543 1541 1537 1535 1536 1537 1539 1541 1542 1543 1541 1536 1533 1532 1527 1523 1522 1520 1520 1518 1518 1518 1519 1520 1521 1521 1520 1520 1519 1517 1515 1515 1516 1516 1513 1510 1508 1506 1504 1503 1501 1500 1499 1497 1498 1498 1495 1494 1493 1490 1488 1486 1483 1484 1485 1483 1482 1480 1479 1479 1481 1483 1486 1484 1481 1486 1486 1477 1473 1473 1467 1464 1464 1462 1461 1463 1461 1460 1459 1458 1458 1458 1455 1454 1453 1453
1545 1546 1546 1546 1544 1542 1540 1539 1540 1541 1540 1541 1540 1536 1534 1534 1531 1529 1525 1522 1521 1521 1520 1521 1524 1525 1525 1524 1523 1522 1521 1520 1518 1518 1517 1516 1514 1511 1507 1505 1504 1503 1502 1502 1501 1500 1503 1501 1495 1494 1493 1490 1488 1487 1485 1486 1485 1481 1480 1480 1477 1478 1481 1481 1480 1476 1476 1482 1480 1471 1470 1471 1464 1461 1463 1464 1463 1460 1458 1458 1458 1458 1457 1455 1453 1452 1451 1451
1546 1546 1545 1545 1546 1545 1544 1543 1541 1541 1539 1539 1538 1536 1535 1535 1534 1532 1529 1524 1524 1524 1525 1527 1529 1528 1525 1524 1523 1524 1524 1524 1523 1522 1519 1518 1518 1515 1512 1508 1505 1503 1503 1504 1503 1503 1504 1500 1495 1494 1494 1491 1490 1488 1485 1486 1486 1482 1479 1477 1475 1476 1478 1477 1476 1473 1473 1474 1471 1468 1470 1469 1462 1457 1460 1464 1464 1460 1457 1456 1455 1455 1454 1452 1450 1449 1448 1449
1545 1546 1545 1545 1544 1544 1543 1543 1542 1541 1539 1538 1538 1537 1536 1537 1537 1535 1530 1528 1528 1528 1528 1530 1530 1528 1526 1525 1524 1525 1524 1524 1525 1523 1520 1520 1519 1518 1517 1513 1508 1506 1507 1507 1506 1504 1505 1502 1497 1496 1498 1495 1491 1488 1486 1487 1487 1485 1479 1473 1473 1475 1475 1474 1472 1470 1470 1471 1467 1466 1468 1465 1458 1455 1456 1459 1460 1458 1457 1456 1456 1454 1451 1448 1447 1446 1446 1446
1545 1545 1545 1545 1544 1543 1542 1542 1542 1541 1540 1539 1539 1538 1537 1538 1538 1537 1532 1529 1530 1531 1530 1529 1529 1527 1525 1524 1524 1524 1522 1521 1521 1520 1519 1519 1518 1517 1516 1512 1510 1509 1509 1509 1508 1505 1506 1506 1499 1499 1503 1498 1491 1490 1490 1488 1489 1486 1476 1470 1471 1473 1471 1468 1466 1465 1466 1466 1464 1465 1466 1460 1454 1452 1452 1452 1452 1453 1452 1452 1453 1451 1447 1444 1446 1446 1446 1446
1545 1545 1545 1546 1545 1543 1542 1542 1541 1541 1541 1541 1541 1539 1538 1538 1537 1537 1534 1530 1529 1530 1530 1528 1527 1526 1525 1524 1523 1522 1521 1519 1518 1517 1516 1515 1514 1514 1513 1510 1510 1510 1508 1508 1507 1505 1505 1505 1501 1502 1504 1497 1491 1492 1491 1492 1495 1485 1469 1463 1465 1466 1465 1463 1462 1460 1459 1460 1462 1462 1459 1453 1450 1450 1449 1447 1446 1446 1444 1444 1445 1445 1442 1441 1443 1444 1444 1445